TimeMDT,TemperatureF,Dew PointF,Humidity,Sea Level PressureIn,VisibilityMPH,Wind Direction,Wind SpeedMPH,Gust SpeedMPH,PrecipitationIn,Events,Conditions,WindDirDegrees,DateUTC
12:53 AM,43.0,28.9,58,30.40,10.0,East,8.1,-,N/A,,Clear,90,2013-10-06 06:53:00
1:53 AM,42.1,28.0,58,30.40,10.0,East,9.2,-,N/A,,Clear,80,2013-10-06 07:53:00
2:53 AM,41.0,28.9,62,30.39,10.0,ENE,9.2,-,N/A,,Clear,60,2013-10-06 08:53:00
3:53 AM,39.0,27.0,62,30.37,10.0,NE,10.4,-,N/A,,Clear,40,2013-10-06 09:53:00
4:53 AM,39.9,28.9,65,30.36,10.0,NE,11.5,-,N/A,,Clear,50,2013-10-06 10:53:00
5:53 AM,35.1,28.0,76,30.37,10.0,NE,10.4,-,N/A,,Clear,50,2013-10-06 11:53:00
6:53 AM,34.0,28.0,79,30.36,10.0,NE,15.0,-,N/A,,Clear,40,2013-10-06 12:53:00
7:53 AM,36.0,28.0,73,30.38,10.0,NE,15.0,-,N/A,,Clear,50,2013-10-06 13:53:00
8:53 AM,39.9,28.9,65,30.38,10.0,NE,17.3,-,N/A,,Clear,50,2013-10-06 14:53:00
9:53 AM,46.9,30.0,52,30.37,10.0,NE,17.3,-,N/A,,Clear,50,2013-10-06 15:53:00
10:53 AM,53.1,30.9,43,30.34,10.0,NE,18.4,-,N/A,,Clear,40,2013-10-06 16:53:00
11:53 AM,60.1,30.0,32,30.32,10.0,NE,13.8,-,N/A,,Clear,50,2013-10-06 17:53:00
12:53 PM,64.9,28.0,25,30.28,10.0,NE,11.5,20.7,N/A,,Clear,50,2013-10-06 18:53:00
1:53 PM,68.0,26.1,21,30.25,10.0,ENE,13.8,-,N/A,,Clear,60,2013-10-06 19:53:00
2:53 PM,70.0,25.0,18,30.21,10.0,NNE,12.7,-,N/A,,Clear,30,2013-10-06 20:53:00
3:53 PM,72.0,25.0,17,30.19,10.0,ENE,11.5,-,N/A,,Clear,60,2013-10-06 21:53:00
4:53 PM,72.0,25.0,17,30.17,10.0,NE,12.7,-,N/A,,Clear,50,2013-10-06 22:53:00
5:53 PM,70.0,28.0,21,30.15,10.0,NE,13.8,-,N/A,,Clear,50,2013-10-06 23:53:00
6:53 PM,63.0,30.0,29,30.15,10.0,NE,13.8,-,N/A,,Clear,50,2013-10-07 00:53:00
7:53 PM,60.1,30.9,33,30.14,10.0,NE,16.1,-,N/A,,Clear,50,2013-10-07 01:53:00
8:53 PM,57.0,30.9,37,30.12,10.0,ENE,13.8,-,N/A,,Clear,60,2013-10-07 02:53:00
9:53 PM,55.9,30.0,37,30.09,10.0,ENE,13.8,-,N/A,,Clear,60,2013-10-07 03:53:00
10:53 PM,55.9,27.0,33,30.08,10.0,ENE,13.8,-,N/A,,Clear,70,2013-10-07 04:53:00
11:53 PM,48.0,30.0,50,30.07,10.0,NNE,17.3,25.3,N/A,,Clear,30,2013-10-07 05:53:00